tititudorancea.com
Station Historical Data
Daily Summary for October 25, 2018 Units:  Metric    English   Both
« Previous Day
Next Day »
Daily Weekly Monthly Yearly Custom
  High: Low: Average:
Temperature: -17.8 °C 1.8 °C 12.2 °C
Dew Point: -17.8 °C 0.2 °C 3.9 °C
Humidity: Humidity % 27 % 62 %
Wind Speed: 0 km/h 0 km/h 11.4 km/h
Wind Gust: 0 km/h - -
Wind:- - SW
Pressure: 0 hPa 1015.8 hPa -
Precipitation: 0 mm    
Historical Graphs
 
 
Ararat weather Find more about Weather in Ararat, AU


 



 


Tabular Data for October 25, 2018
Time Temperature Dew Point Pressure Wind Wind Speed Wind Gust Humidity Rainfall Rate (Hourly)
-17.8 °C -17.8 °C 0 hPa Calm     Humidity % 0 mm
00:04 6.9 °C 2.2 °C 1020.5 hPa SE 9.3 km/h 6.9 km/h 72 % 0 mm
00:09 6.8 °C 2.3 °C 1020.5 hPa SSE 13 km/h 7.9 km/h 73 % 0 mm
00:14 6.7 °C 2.2 °C 1020.2 hPa SSE 9.7 km/h 9.8 km/h 73 % 0 mm
00:19 6.7 °C 2.2 °C 1020.5 hPa SSE 9.7 km/h 7.9 km/h 73 % 0 mm
00:24 6.7 °C 2.2 °C 1020.2 hPa SSE 11.1 km/h 8.2 km/h 73 % 0 mm
00:29 6.7 °C 2.2 °C 1020.2 hPa SSE 16.7 km/h 9.7 km/h 73 % 0 mm
00:34 6.6 °C 2.1 °C 1020.2 hPa SSE 9.3 km/h 3.7 km/h 73 % 0 mm
00:39 6.6 °C 2.3 °C 1020.5 hPa SSE 16.7 km/h 10.6 km/h 74 % 0 mm
00:44 6.6 °C 2.2 °C 1020.5 hPa SSE 9.3 km/h 7.1 km/h 74 % 0 mm
00:49 6.4 °C 2.1 °C 1020.5 hPa SSE 9.3 km/h 7.4 km/h 74 % 0 mm
00:54 6.4 °C 2.3 °C 1020.5 hPa North 13 km/h 9.3 km/h 75 % 0 mm
00:59 6.4 °C 2.3 °C 1020.2 hPa SSE 14.8 km/h 9 km/h 75 % 0 mm
01:04 6.3 °C 2.2 °C 1020.2 hPa SSE 16.7 km/h 6.6 km/h 75 % 0 mm
01:09 6.3 °C 2.2 °C 1020.2 hPa SSE 7.4 km/h 4.8 km/h 75 % 0 mm
01:14 6.3 °C 2.3 °C 1019.9 hPa North 9.3 km/h 6.9 km/h 76 % 0 mm
01:19 6.2 °C 2.3 °C 1020.2 hPa North 9.3 km/h 6.4 km/h 76 % 0 mm
01:24 6.2 °C 2.5 °C 1020.2 hPa SSE 8 km/h 6 km/h 77 % 0 mm
01:29 6.2 °C 2.5 °C 1019.9 hPa SSE 9.3 km/h 3.4 km/h 77 % 0 mm
01:34 6.2 °C 2.4 °C 1019.9 hPa SSE 8 km/h 6.3 km/h 77 % 0 mm
01:39 6.1 °C 2.6 °C 1020.2 hPa North 11.1 km/h 8 km/h 78 % 0 mm
01:44 6.1 °C 2.7 °C 1020.2 hPa SSE 8 km/h 6.8 km/h 79 % 0 mm
01:49 6 °C 2.6 °C 1019.9 hPa SSE 7.4 km/h 3.7 km/h 79 % 0 mm
01:54 5.9 °C 2.6 °C 1019.9 hPa North 7.4 km/h 7.2 km/h 79 % 0 mm
01:59 5.9 °C 2.6 °C 1019.9 hPa SSE 9.3 km/h 6.1 km/h 79 % 0 mm
02:04 5.8 °C 2.7 °C 1019.9 hPa SSE 8 km/h 4.5 km/h 80 % 0 mm
02:09 5.8 °C 2.6 °C 1019.9 hPa SSE 8 km/h 6.9 km/h 80 % 0 mm
02:14 5.8 °C 2.8 °C 1019.9 hPa North 11.1 km/h 4.2 km/h 81 % 0 mm
02:19 5.7 °C 2.7 °C 1019.9 hPa North 7.4 km/h 5 km/h 81 % 0 mm
02:24 5.7 °C 2.7 °C 1019.9 hPa SSE 8 km/h 5.6 km/h 81 % 0 mm
02:29 5.7 °C 2.7 °C 1019.9 hPa SSE 8 km/h 7.1 km/h 81 % 0 mm
02:34 5.7 °C 2.7 °C 1019.5 hPa SSE 9.3 km/h 7.2 km/h 81 % 0 mm
02:39 5.6 °C 2.8 °C 1019.5 hPa SSE 9.3 km/h 7.4 km/h 82 % 0 mm
02:44 5.6 °C 2.8 °C 1019.5 hPa North 9.3 km/h 8.9 km/h 82 % 0 mm
02:49 5.6 °C 2.8 °C 1019.5 hPa North 7.4 km/h 6.8 km/h 82 % 0 mm
02:54 5.6 °C 2.7 °C 1019.5 hPa North 7.4 km/h 4.3 km/h 82 % 0 mm
02:59 5.5 °C 2.7 °C 1019.2 hPa North 7.4 km/h 3.9 km/h 82 % 0 mm
03:04 5.4 °C 2.6 °C 1019.2 hPa SSE 7.4 km/h 4 km/h 82 % 0 mm
03:09 5.3 °C 2.7 °C 1019.2 hPa SSE 7.4 km/h 3.5 km/h 83 % 0 mm
03:14 5.3 °C 2.6 °C 1019.2 hPa North 5.6 km/h 1.1 km/h 83 % 0 mm
03:19 5.2 °C 2.6 °C 1019.2 hPa SSE 5.6 km/h 3.2 km/h 83 % 0 mm
03:24 5.2 °C 2.7 °C 1019.2 hPa SSE 7.4 km/h 5.3 km/h 84 % 0 mm
03:29 5.2 °C 2.7 °C 1018.8 hPa North 7.4 km/h 0.2 km/h 84 % 0 mm
03:34 5.1 °C 2.6 °C 1018.8 hPa North 8 km/h 7.4 km/h 84 % 0 mm
03:39 5.2 °C 2.7 °C 1018.8 hPa SSE 5.6 km/h   84 % 0 mm
03:44 5.2 °C 2.7 °C 1018.8 hPa SSE 7.4 km/h 4.8 km/h 84 % 0 mm
03:49 5.1 °C 2.8 °C 1018.8 hPa North 5.6 km/h 3.1 km/h 85 % 0 mm
03:54 5.1 °C 2.8 °C 1018.8 hPa North 5.6 km/h 5 km/h 85 % 0 mm
03:59 5.1 °C 2.8 °C 1018.8 hPa SSE 3.7 km/h 3.2 km/h 85 % 0 mm
04:04 5.1 °C 2.7 °C 1018.8 hPa SSE 3.7 km/h 0.8 km/h 85 % 0 mm
04:09 5 °C 2.7 °C 1018.8 hPa North 7.4 km/h 2.3 km/h 85 % 0 mm
04:14 5 °C 2.7 °C 1018.8 hPa SSE 3.7 km/h 2.4 km/h 85 % 0 mm
04:19 4.9 °C 2.8 °C 1018.5 hPa SSE 3.7 km/h 1 km/h 86 % 0 mm
04:24 4.8 °C 2.7 °C 1018.8 hPa North 3.7 km/h 2.3 km/h 86 % 0 mm
04:29 4.7 °C 2.3 °C 1018.8 hPa North 5.6 km/h 4.3 km/h 85 % 0 mm
04:34 4.5 °C 2.2 °C 1018.8 hPa Calm     85 % 0 mm
04:39 4.4 °C 2.3 °C 1018.5 hPa Calm     86 % 0 mm
04:44 4.3 °C 2.2 °C 1018.5 hPa North 5.6 km/h 4.5 km/h 86 % 0 mm
04:49 4.4 °C 2.4 °C 1018.5 hPa North 5.6 km/h 4.3 km/h 87 % 0 mm
04:54 4.4 °C 2.4 °C 1018.2 hPa SSE 8 km/h 3.7 km/h 87 % 0 mm
04:59 4.3 °C 2.5 °C 1018.5 hPa North 5.6 km/h 3.9 km/h 88 % 0 mm
05:04 4.4 °C 2.6 °C 1018.5 hPa North 7.4 km/h 3.9 km/h 88 % 0 mm
05:09 4.4 °C 2.6 °C 1018.5 hPa SSE 7.4 km/h 4 km/h 88 % 0 mm
05:14 4.4 °C 2.6 °C 1018.5 hPa North 5.6 km/h 4.3 km/h 88 % 0 mm
05:19 4.5 °C 2.7 °C 1018.5 hPa SSE 6.4 km/h 2.3 km/h 88 % 0 mm
05:24 4.4 °C 2.6 °C 1018.5 hPa SSE 3.7 km/h   88 % 0 mm
05:29 4.2 °C 2.4 °C 1018.5 hPa SSE 1.9 km/h   88 % 0 mm
05:34 4.1 °C 2.3 °C 1018.5 hPa Calm     88 % 0 mm
05:39 4.1 °C 2.3 °C 1018.5 hPa Calm     88 % 0 mm
05:44 4 °C 2.2 °C 1018.5 hPa Calm     88 % 0 mm
05:49 3.8 °C 2 °C 1018.2 hPa Calm     88 % 0 mm
05:54 3.7 °C 1.9 °C 1018.2 hPa Calm   0.5 km/h 88 % 0 mm
05:59 3.5 °C 1.7 °C 1018.2 hPa Calm     88 % 0 mm
06:04 3.3 °C 1.5 °C 1018.2 hPa Calm     88 % 0 mm
06:09 3.1 °C 1.3 °C 1018.2 hPa Calm     88 % 0 mm
06:14 2.8 °C 1 °C 1018.2 hPa Calm     88 % 0 mm
06:19 2.6 °C 0.8 °C 1018.5 hPa Calm     88 % 0 mm
06:24 2.4 °C 0.6 °C 1018.5 hPa Calm     88 % 0 mm
06:29 2.2 °C 0.4 °C 1018.5 hPa Calm     88 % 0 mm
06:34 2.1 °C 0.5 °C 1018.5 hPa Calm     89 % 0 mm
06:39 1.9 °C 0.3 °C 1018.5 hPa Calm     89 % 0 mm
06:44 1.8 °C 0.2 °C 1018.5 hPa Calm     89 % 0 mm
06:49 1.8 °C 0.2 °C 1018.5 hPa Calm     89 % 0 mm
06:54 1.8 °C 0.3 °C 1018.5 hPa Calm     90 % 0 mm
06:59 1.8 °C 0.4 °C 1018.5 hPa Calm     90 % 0 mm
07:04 1.8 °C 0.4 °C 1018.5 hPa Calm     90 % 0 mm
07:09 1.8 °C 0.4 °C 1018.5 hPa Calm     90 % 0 mm
07:14 1.9 °C 0.5 °C 1018.5 hPa Calm     90 % 0 mm
07:19 2.2 °C 0.8 °C 1018.5 hPa Calm     91 % 0 mm
07:24 2.3 °C 1 °C 1018.5 hPa Calm     91 % 0 mm
07:29 2.7 °C 1.6 °C 1018.5 hPa Calm     92 % 0 mm
07:34 3.3 °C 2.1 °C 1018.5 hPa Calm     92 % 0 mm
07:39 3.7 °C 2.6 °C 1018.2 hPa Calm     92 % 0 mm
07:44 4.5 °C 3.4 °C 1018.5 hPa Calm     93 % 0 mm
07:49 5.1 °C 3.9 °C 1018.5 hPa Calm     92 % 0 mm
07:54 5.3 °C 3.8 °C 1018.5 hPa Calm     90 % 0 mm
07:59 5.7 °C 4.3 °C 1018.5 hPa Calm     91 % 0 mm
08:04 6.2 °C 4.7 °C 1018.5 hPa Calm     90 % 0 mm
08:09 6.4 °C 4.8 °C 1018.5 hPa Calm     89 % 0 mm
08:14 6.9 °C 5.1 °C 1018.8 hPa Calm     88 % 0 mm
08:19 7.4 °C 5.6 °C 1018.8 hPa Calm     88 % 0 mm
08:24 8 °C 5.8 °C 1018.8 hPa Calm     86 % 0 mm
08:29 8.3 °C 5.8 °C 1018.8 hPa SSE 1.9 km/h   84 % 0 mm
08:34 8.8 °C 6.1 °C 1018.8 hPa SSE 1.6 km/h   83 % 0 mm
08:39 9.3 °C 6 °C 1018.8 hPa SSE 1.9 km/h 1.1 km/h 80 % 0 mm
08:44 9.6 °C 5.9 °C 1018.8 hPa SSE 3.7 km/h 3.7 km/h 78 % 0 mm
08:49 10 °C 6.2 °C 1019.2 hPa Calm     77 % 0 mm
08:54 10.6 °C 6.3 °C 1018.8 hPa SSE 1.9 km/h 0.5 km/h 75 % 0 mm
08:59 11.4 °C 6.5 °C 1018.8 hPa SSE 1.6 km/h 0.5 km/h 72 % 0 mm
09:04 11.7 °C 6.2 °C 1018.8 hPa SSE 3.2 km/h 0.5 km/h 69 % 0 mm
09:09 11.9 °C 5.8 °C 1018.8 hPa SSE 3.7 km/h 1.8 km/h 66 % 0 mm
09:14 12.2 °C 5.8 °C 1018.8 hPa Calm   0.3 km/h 65 % 0 mm
09:19 12.7 °C 6.3 °C 1018.8 hPa SSE 3.7 km/h 0.3 km/h 65 % 0 mm
09:24 13 °C 5.9 °C 1018.8 hPa Calm     62 % 0 mm
09:29 13.5 °C 5.9 °C 1018.8 hPa Calm     60 % 0 mm
09:34 14.3 °C 5.6 °C 1018.8 hPa SSE 5.6 km/h 3.2 km/h 56 % 0 mm
09:39 14.9 °C 5.7 °C 1018.8 hPa SSE 3.7 km/h 1.9 km/h 54 % 0 mm
09:44 15.1 °C 5.9 °C 1018.8 hPa SSE 1.9 km/h 0.5 km/h 54 % 0 mm
09:49 15.8 °C 5.7 °C 1018.8 hPa SSE 1.9 km/h 1.4 km/h 51 % 0 mm
09:54 16 °C 5.8 °C 1018.8 hPa SSE 3.7 km/h   51 % 0 mm
09:59 16.2 °C 5.7 °C 1018.5 hPa SSE 8 km/h 6.1 km/h 50 % 0 mm
10:04 16.3 °C 5.6 °C 1018.5 hPa SSE 3.7 km/h 1.8 km/h 49 % 0 mm
10:09 16.4 °C 5.7 °C 1018.5 hPa SSE 3.7 km/h 2.9 km/h 49 % 0 mm
10:14 16.4 °C 5.4 °C 1018.5 hPa SSE 7.4 km/h 1.6 km/h 48 % 0 mm
10:19 16.7 °C 5.3 °C 1018.5 hPa SSE 3.2 km/h 3.1 km/h 47 % 0 mm
10:24 17.2 °C 5.5 °C 1018.5 hPa SSE 7.4 km/h 1.9 km/h 46 % 0 mm
10:29 17.4 °C 5.3 °C 1018.5 hPa SSE 6.4 km/h 4.8 km/h 45 % 0 mm
10:34 17.9 °C 5.2 °C 1018.5 hPa SSE 6.4 km/h 2.7 km/h 43 % 0 mm
10:39 18.1 °C 5.3 °C 1018.2 hPa SE 5.6 km/h 3.1 km/h 43 % 0 mm
10:44 17.9 °C 4.8 °C 1018.2 hPa SE 9.3 km/h 8 km/h 42 % 0 mm
10:49 17.5 °C 4.1 °C 1018.2 hPa SE 3.7 km/h 3.2 km/h 41 % 0 mm
10:54 17.8 °C 3.3 °C 1018.2 hPa SE 12.9 km/h 9.5 km/h 38 % 0 mm
10:59 18.2 °C 3.7 °C 1018.2 hPa WSW 16.7 km/h 13.2 km/h 38 % 0 mm
11:04 18.2 °C 2.8 °C 1018.2 hPa West 18.5 km/h 12.2 km/h 36 % 0 mm
11:09 18.1 °C 3.5 °C 1018.2 hPa West 14.8 km/h 8 km/h 38 % 0 mm
11:14 18.2 °C 2.9 °C 1018.2 hPa West 9.7 km/h 6.8 km/h 36 % 0 mm
11:19 18.1 °C 2.4 °C 1017.8 hPa WSW 11.1 km/h 7.1 km/h 35 % 0 mm
11:24 18.1 °C 2.8 °C 1017.8 hPa WSW 9.7 km/h 10.9 km/h 36 % 0 mm
11:29 18.2 °C 1.2 °C 1018.2 hPa SW 18.5 km/h 15.6 km/h 32 % 0 mm
11:34 18.4 °C 2.3 °C 1018.2 hPa SW 14.5 km/h 13.8 km/h 34 % 0 mm
11:39 18.4 °C 2.2 °C 1018.2 hPa SW 12.9 km/h 6.8 km/h 34 % 0 mm
11:44 18.8 °C 2.6 °C 1017.8 hPa WSW 22.2 km/h 10.3 km/h 34 % 0 mm
11:49 18.9 °C 2.3 °C 1017.8 hPa North 13 km/h 8.5 km/h 33 % 0 mm
11:54 18.9 °C 3.1 °C 1018.2 hPa WSW 16.7 km/h 9.5 km/h 35 % 0 mm
11:59 18.9 °C 3.1 °C 1017.8 hPa WSW 5.6 km/h 5.3 km/h 35 % 0 mm
12:04 18.9 °C 2.7 °C 1017.8 hPa SSW 18.5 km/h 7.9 km/h 34 % 0 mm
12:09 19.1 °C 2.4 °C 1017.8 hPa WSW 14.8 km/h 9.7 km/h 33 % 0 mm
12:14 19.1 °C 3.7 °C 1017.8 hPa WSW 16.7 km/h 13 km/h 36 % 0 mm
12:19 19.1 °C 2.4 °C 1017.8 hPa SW 14.8 km/h 4.7 km/h 33 % 0 mm
12:24 19.8 °C 3.9 °C 1017.8 hPa WSW 13 km/h 7.7 km/h 35 % 0 mm
12:29 20 °C 2.8 °C 1017.8 hPa WSW 18.5 km/h 13.2 km/h 32 % 0 mm
12:34 19.6 °C 2.4 °C 1017.5 hPa West 18.5 km/h 14.8 km/h 32 % 0 mm
12:39 19.5 °C 2.3 °C 1017.5 hPa WNW 16.7 km/h 12.7 km/h 32 % 0 mm
12:44 19.2 °C 2.6 °C 1017.5 hPa WNW 16.7 km/h 10.3 km/h 33 % 0 mm
12:49 19.3 °C 3.4 °C 1017.5 hPa North 16.7 km/h 8.5 km/h 35 % 0 mm
12:54 19.5 °C 3.2 °C 1017.5 hPa WNW 5.6 km/h 2.9 km/h 34 % 0 mm
12:59 19.8 °C 3.1 °C 1017.5 hPa WNW 11.1 km/h 7.9 km/h 33 % 0 mm
13:04 19.7 °C 3 °C 1017.5 hPa WNW 11.1 km/h 3.9 km/h 33 % 0 mm
13:09 19.9 °C 3.2 °C 1017.2 hPa WNW 5.6 km/h 2.9 km/h 33 % 0 mm
13:14 20 °C 3.7 °C 1017.2 hPa SW 16.7 km/h 9.2 km/h 34 % 0 mm
13:19 20.2 °C 4.7 °C 1016.8 hPa West 13 km/h 12.4 km/h 36 % 0 mm
13:24 20.4 °C 4.1 °C 1016.8 hPa North 9.3 km/h 6.3 km/h 34 % 0 mm
13:29 20.4 °C 3.6 °C 1016.8 hPa SW 11.1 km/h 7.6 km/h 33 % 0 mm
13:34 20.4 °C 3.6 °C 1016.8 hPa West 16.1 km/h 10.9 km/h 33 % 0 mm
13:39 20.4 °C 4 °C 1016.8 hPa West 9.3 km/h 6.9 km/h 34 % 0 mm
13:44 20.6 °C 3.7 °C 1016.8 hPa SW 18.5 km/h 11.4 km/h 33 % 0 mm
13:49 20.8 °C 4.4 °C 1016.8 hPa SW 14.8 km/h 8.5 km/h 34 % 0 mm
13:54 21 °C 4.1 °C 1016.8 hPa West 16.7 km/h 6.4 km/h 33 % 0 mm
13:59 21.1 °C 3.7 °C 1016.8 hPa West 14.8 km/h 9.2 km/h 32 % 0 mm
14:04 20.6 °C 3.3 °C 1016.8 hPa WNW 13 km/h 6.3 km/h 32 % 0 mm
14:09 20.2 °C 2.9 °C 1016.5 hPa NW 5.6 km/h 2.9 km/h 32 % 0 mm
14:14 20.3 °C 3.9 °C 1016.5 hPa WSW 20.4 km/h 9.8 km/h 34 % 0 mm
14:19 20.6 °C 3.3 °C 1016.5 hPa North 11.3 km/h 9.3 km/h 32 % 0 mm
14:24 20.7 °C 3.8 °C 1016.5 hPa WSW 12.9 km/h 6.3 km/h 33 % 0 mm
14:29 20.8 °C 3.5 °C 1016.5 hPa SSW 14.8 km/h 7.6 km/h 32 % 0 mm
14:34 21.1 °C 3.3 °C 1016.5 hPa SSW 14.8 km/h 8.9 km/h 31 % 0 mm
14:39 20.9 °C 2.7 °C 1016.5 hPa SW 20.4 km/h 13.7 km/h 30 % 0 mm
14:44 20.8 °C 3 °C 1016.1 hPa SW 7.4 km/h 1.4 km/h 31 % 0 mm
14:49 21.1 °C 2.8 °C 1016.5 hPa SW 7.4 km/h 4.5 km/h 30 % 0 mm
14:54 21.3 °C 3.1 °C 1016.1 hPa SW 9.7 km/h 8.7 km/h 30 % 0 mm
14:59 21.4 °C 3.1 °C 1016.1 hPa SW 4.8 km/h 5.1 km/h 30 % 0 mm
15:04 21.4 °C 3.1 °C 1016.1 hPa WSW 18.5 km/h 10.3 km/h 30 % 0 mm
15:09 21.6 °C 3.7 °C 1016.1 hPa SSW 18.5 km/h 14.2 km/h 31 % 0 mm
15:14 21.7 °C 3.4 °C 1016.1 hPa North 18.5 km/h 12.7 km/h 30 % 0 mm
15:19 21.4 °C 2.7 °C 1016.1 hPa West 17.7 km/h 12.2 km/h 29 % 0 mm
15:24 21.2 °C 2.9 °C 1016.1 hPa SW 18.5 km/h 10.6 km/h 30 % 0 mm
15:29 21.1 °C 2.8 °C 1015.8 hPa SSE 12.9 km/h 12.1 km/h 30 % 0 mm
15:34 21.5 °C 2.7 °C 1015.8 hPa SSW 18.5 km/h 15.1 km/h 29 % 0 mm
15:39 21.3 °C 2 °C 1015.8 hPa North 18.5 km/h 10.3 km/h 28 % 0 mm
15:44 21.5 °C 2.7 °C 1015.8 hPa WSW 13 km/h 10.8 km/h 29 % 0 mm
15:49 21.8 °C 2.5 °C 1015.8 hPa West 18.5 km/h 12.2 km/h 28 % 0 mm
15:54 21.8 °C 2 °C 1015.8 hPa West 6.4 km/h 6.1 km/h 27 % 0 mm
15:59 21.7 °C 1.8 °C 1015.8 hPa WSW 18.5 km/h 9.5 km/h 27 % 0 mm
16:04 21.8 °C 1.9 °C 1015.8 hPa SSW 9.3 km/h 4.3 km/h 27 % 0 mm
16:09 22 °C 2.1 °C 1015.8 hPa WSW 16.7 km/h 14.3 km/h 27 % 0 mm
16:14 21.6 °C 2.3 °C 1015.8 hPa South 18.5 km/h 15.6 km/h 28 % 0 mm
16:19 21.5 °C 2.2 °C 1015.8 hPa WSW 27.8 km/h 16.3 km/h 28 % 0 mm
16:24 21.3 °C 2.5 °C 1015.8 hPa SW 14.5 km/h 11.1 km/h 29 % 0 mm
16:29 21.4 °C 2.7 °C 1015.8 hPa SSW 13 km/h 13.5 km/h 29 % 0 mm
16:34 21.5 °C 2.7 °C 1015.8 hPa SSW 17.7 km/h 12.1 km/h 29 % 0 mm
16:39 21.7 °C 3.4 °C 1015.8 hPa WSW 24.1 km/h 14.2 km/h 30 % 0 mm
16:44 21.6 °C 3.2 °C 1015.8 hPa WSW 22.2 km/h 9.7 km/h 30 % 0 mm
16:49 21.7 °C 2.9 °C 1015.8 hPa South 14.8 km/h 14.8 km/h 29 % 0 mm
16:54 21.2 °C 2.4 °C 1015.8 hPa SSW 33.3 km/h 20.6 km/h 29 % 0 mm
16:59 21.2 °C 2.9 °C 1015.8 hPa South 27.8 km/h 19.6 km/h 30 % 0 mm
17:04 21.2 °C 3.3 °C 1015.8 hPa SSW 25.9 km/h 15.9 km/h 31 % 0 mm
17:09 21.1 °C 3.3 °C 1015.8 hPa SW 25.9 km/h 16.1 km/h 31 % 0 mm
17:14 21.1 °C 3.3 °C 1015.8 hPa SW 16.7 km/h 8.5 km/h 31 % 0 mm
17:19 21.4 °C 4 °C 1015.8 hPa WSW 20.9 km/h 16.7 km/h 32 % 0 mm
17:24 21.3 °C 3.9 °C 1015.8 hPa North 22.5 km/h 11.6 km/h 32 % 0 mm
17:29 21.2 °C 4.7 °C 1015.8 hPa SSW 24.1 km/h 19.8 km/h 34 % 0 mm
17:34 20.8 °C 5.2 °C 1015.8 hPa SW 25.9 km/h 15.4 km/h 36 % 0 mm
17:39 20.8 °C 5.9 °C 1016.1 hPa South 27.4 km/h 14.3 km/h 38 % 0 mm
17:44 20.2 °C 6.8 °C 1016.1 hPa SSW 25.9 km/h 26.7 km/h 42 % 0 mm
17:49 19.4 °C 7.2 °C 1016.5 hPa SSW 35.2 km/h 18.7 km/h 45 % 0 mm
17:54 19.1 °C 7.2 °C 1016.5 hPa SSW 31.5 km/h 17.2 km/h 46 % 0 mm
17:59 18.9 °C 7.4 °C 1016.5 hPa South 31.5 km/h 17.5 km/h 47 % 0 mm
18:04 18.6 °C 7.4 °C 1016.5 hPa South 29.6 km/h 17.1 km/h 48 % 0 mm
18:09 18.5 °C 7.3 °C 1016.5 hPa South 31.5 km/h 22.5 km/h 48 % 0 mm
18:14 18.4 °C 7.5 °C 1016.5 hPa SSE 29.6 km/h 22.5 km/h 49 % 0 mm
18:19 18.3 °C 7.7 °C 1016.8 hPa South 31.5 km/h 19.8 km/h 50 % 0 mm
18:24 18.1 °C 7.5 °C 1016.8 hPa South 29.6 km/h 21.6 km/h 50 % 0 mm
18:29 17.9 °C 7.6 °C 1016.8 hPa South 24.1 km/h 13.4 km/h 51 % 0 mm
18:34 17.7 °C 7.7 °C 1016.8 hPa SSW 27.4 km/h 16.1 km/h 52 % 0 mm
18:39 17.4 °C 8.1 °C 1016.8 hPa SSW 20.4 km/h 9.5 km/h 54 % 0 mm
18:44 17.4 °C 8 °C 1016.8 hPa South 18.5 km/h 12.6 km/h 54 % 0 mm
18:49 17.2 °C 7.8 °C 1017.2 hPa SSE 18.5 km/h 14.2 km/h 54 % 0 mm
18:54 16.8 °C 7.7 °C 1017.2 hPa South 27.8 km/h 12.1 km/h 55 % 0 mm
18:59 16.7 °C 7.8 °C 1017.2 hPa South 22.2 km/h 14.5 km/h 56 % 0 mm
19:04 16.4 °C 7.6 °C 1017.2 hPa South 20.4 km/h 17.7 km/h 56 % 0 mm
19:09 16.2 °C 7.7 °C 1017.5 hPa South 20.4 km/h 8.5 km/h 57 % 0 mm
19:14 16.1 °C 7.6 °C 1017.5 hPa South 18.5 km/h 15.4 km/h 57 % 0 mm
19:19 15.8 °C 7.5 °C 1017.5 hPa South 18.5 km/h 10.8 km/h 58 % 0 mm
19:24 15.5 °C 7.5 °C 1017.5 hPa South 16.7 km/h 6 km/h 59 % 0 mm
19:29 15.3 °C 7.3 °C 1017.8 hPa South 13 km/h 13.5 km/h 59 % 0 mm
19:34 15 °C 7.3 °C 1017.8 hPa South 16.7 km/h 13 km/h 60 % 0 mm
19:39 14.7 °C 7 °C 1017.8 hPa South 25.9 km/h 14.6 km/h 60 % 0 mm
19:44 14.4 °C 7 °C 1018.2 hPa South 20.4 km/h 14 km/h 61 % 0 mm
19:49 14.2 °C 7.1 °C 1018.2 hPa South 18.5 km/h 7.2 km/h 62 % 0 mm
19:54 13.9 °C 6.8 °C 1018.2 hPa South 24.1 km/h 15.1 km/h 62 % 0 mm
19:59 13.7 °C 6.6 °C 1018.2 hPa South 16.7 km/h 10.9 km/h 62 % 0 mm
20:04 13.6 °C 6.7 °C 1018.2 hPa South 13 km/h 9.7 km/h 63 % 0 mm
20:09 13.4 °C 6.5 °C 1018.2 hPa South 16.1 km/h 9.8 km/h 63 % 0 mm
20:14 13.2 °C 6.5 °C 1018.2 hPa South 13 km/h 8.7 km/h 64 % 0 mm
20:19 13 °C 6.3 °C 1018.2 hPa South 20.4 km/h 12.1 km/h 64 % 0 mm
20:24 12.9 °C 6.4 °C 1018.5 hPa South 18.5 km/h 9.7 km/h 65 % 0 mm
20:29 12.7 °C 6.3 °C 1018.2 hPa South 18.5 km/h 11.6 km/h 65 % 0 mm
20:34 12.4 °C 6.3 °C 1018.5 hPa South 18.5 km/h 8 km/h 66 % 0 mm
20:39 12.2 °C 6.1 °C 1018.5 hPa South 29.6 km/h 15.3 km/h 66 % 0 mm
20:44 12 °C 6.1 °C 1018.5 hPa South 16.7 km/h 11.3 km/h 67 % 0 mm
20:49 11.8 °C 6.1 °C 1018.8 hPa South 16.1 km/h 12.7 km/h 68 % 0 mm
20:54 11.6 °C 5.9 °C 1018.8 hPa South 14.8 km/h 8.7 km/h 68 % 0 mm
20:59 11.4 °C 5.9 °C 1018.8 hPa South 11.3 km/h 6.9 km/h 69 % 0 mm
21:04 11.2 °C 5.9 °C 1018.8 hPa South 14.8 km/h 7.9 km/h 70 % 0 mm
21:09 10.9 °C 5.9 °C 1018.8 hPa South 11.1 km/h 10.5 km/h 71 % 0 mm
21:11 10.9 °C 5.8 °C 1018.8 hPa South 13 km/h 6.6 km/h 71 % 0 mm
21:24 10.6 °C 5.7 °C 1018.8 hPa South 14.8 km/h 12.1 km/h 72 % 0 mm
21:29 10.4 °C 5.6 °C 1018.8 hPa South 13 km/h 9.8 km/h 72 % 0 mm
21:33 10.3 °C 5.7 °C 1018.8 hPa South 13 km/h 9.3 km/h 73 % 0 mm
21:44 10.1 °C 5.7 °C 1018.8 hPa South 12.9 km/h 7.7 km/h 74 % 0 mm
21:49 10 °C 5.6 °C 1018.8 hPa South 16.7 km/h 8.2 km/h 74 % 0 mm
21:54 9.9 °C 5.4 °C 1018.8 hPa South 13 km/h 8 km/h 74 % 0 mm
21:59 9.8 °C 5.6 °C 1018.8 hPa North 14.8 km/h 10.9 km/h 75 % 0 mm
22:04 9.7 °C 5.4 °C 1019.2 hPa SSW 9.7 km/h 8.5 km/h 75 % 0 mm
22:09 9.6 °C 5.6 °C 1019.2 hPa South 13 km/h 7.2 km/h 76 % 0 mm
22:14 9.5 °C 5.5 °C 1018.8 hPa North 9.3 km/h 5.1 km/h 76 % 0 mm
22:19 9.4 °C 5.6 °C 1019.2 hPa South 11.1 km/h 5.5 km/h 77 % 0 mm
22:24 9.2 °C 5.4 °C 1019.2 hPa South 12.9 km/h 11.1 km/h 77 % 0 mm
22:29 9.2 °C 5.6 °C 1019.2 hPa SSW 20.4 km/h 11.9 km/h 78 % 0 mm
22:34 9.1 °C 5.5 °C 1019.2 hPa SSW 18.5 km/h 9.5 km/h 78 % 0 mm
22:39 9 °C 5.6 °C 1019.5 hPa South 11.1 km/h 7.2 km/h 79 % 0 mm
22:44 8.8 °C 5.4 °C 1019.5 hPa South 13 km/h 7.2 km/h 79 % 0 mm
22:49 8.7 °C 5.4 °C 1019.5 hPa South 18.5 km/h 11.1 km/h 80 % 0 mm
22:54 8.6 °C 5.6 °C 1019.5 hPa SSW 18.5 km/h 13.5 km/h 81 % 0 mm
22:59 8.6 °C 5.5 °C 1019.5 hPa North 24.1 km/h 12.1 km/h 81 % 0 mm
23:04 8.5 °C 5.6 °C 1019.5 hPa SSW 11.1 km/h 6.6 km/h 82 % 0 mm
23:09 8.4 °C 5.6 °C 1019.5 hPa South 14.8 km/h 5.6 km/h 82 % 0 mm
23:14 8.4 °C 5.5 °C 1019.2 hPa North 8 km/h 6.9 km/h 82 % 0 mm
23:19 8.3 °C 5.6 °C 1019.2 hPa North 13 km/h 8.2 km/h 83 % 0 mm
23:24 8.2 °C 5.5 °C 1019.2 hPa North 9.3 km/h 5.1 km/h 83 % 0 mm
23:29 8.2 °C 5.6 °C 1019.2 hPa North 11.1 km/h 7.4 km/h 84 % 0 mm
23:34 8.1 °C 5.6 °C 1019.2 hPa North 14.8 km/h 8.7 km/h 84 % 0 mm
23:39 8 °C 5.4 °C 1019.2 hPa North 13 km/h 8.9 km/h 84 % 0 mm
23:44 8 °C 5.6 °C 1019.2 hPa North 11.1 km/h 6.4 km/h 85 % 0 mm
23:49 7.9 °C 5.5 °C 1019.2 hPa South 16.7 km/h 8.7 km/h 85 % 0 mm
23:54 7.8 °C 5.4 °C 1018.8 hPa South 9.7 km/h 7.4 km/h 85 % 0 mm
23:59 7.8 °C 5.6 °C 1019.2 hPa South 13 km/h 10.6 km/h 86 % 0 mm
Ararat Weather
Compliments of Weather Underground - 2.25 mb
Click here to send mail.


ABOUT

Live weather data from Ararat, Victoria, Australia, 3377
Data uploaded from Cumulus every 5 minutes to Weather Underground.
This site then downloads the raw data for formatting and display.
Metric and imperial data can be displayed. Graphs and historical data available.
Includes Sun and Moon times and rain image live from BOM.

Check out Ararat Weather on Facebook, Twitter and Google +

Help support ongoing costs by checking out the ads





Follow @AraratWeather